Regional Weather Roundup
Issued by NWS

Home | Current Version | Previous Version | Text Only | Print | Product List | Glossary Off
Versions: 1 2 3 4 5 6 7 8 9 10 11 12 13 14 15 16 17 18 19 20 21 22 23 24 25 26 27 28 29 30 31 32 33 34 35 36 37 38 39 40 41 42 43 44 45 46 47 48 49 50

000
ASUS43 KMPX 060901
RWRMN
WEATHER ROUNDUP FOR MINNESOTA
NATIONAL WEATHER SERVICE TWIN CITIES/CHANHASSEN MN
400 AM CDT WED MAY 06 2015


NOTE: "FAIR" INDICATES FEW OR NO CLOUDS BELOW 12,000 FEET WITH NO
SIGNIFICANT WEATHER AND/OR OBSTRUCTIONS TO VISIBILITY. N/A MEANS
CURRENT SKY AND/OR WEATHER CONDITIONS ARE NOT AVAILABLE.

MNZ060>063-068>070-061000-
   Twin Cities Metro

CITY           SKY/WX    TMP DP  RH WIND       PRES   REMARKS
TWIN CITIES    CLOUDY    56  54  93 E9        30.08F FOG
ST PAUL        CLOUDY    55  54  96 E8        30.09F
CRYSTAL        CLOUDY    57  54  89 SE8       30.06F
BLAINE         CLOUDY    57  55  94 E8        30.08F FOG
LAKEVILLE      CLOUDY    54  54 100 E7        30.08S FOG
EDEN PRAIRIE   LGT RAIN  56  53  90 E8        30.07F
SOUTH ST PAUL  CLOUDY    56  54  92 SE8       30.08F FOG
LAKE ELMO      CLOUDY    54  54 100 E6        30.10F FOG
$$
MNZ001>005-007-008-013>017-022>024-027-028-061000-
   Northwest Minnesota

CITY           SKY/WX    TMP DP  RH WIND       PRES   REMARKS
BEMIDJI        MOCLDY    56  41  57 SE7       30.03S
HALLOCK        CLEAR     55  45  67 SE10      29.95F
ROSEAU         CLEAR     55  41  58 SE6       30.00S
WARROAD        CLEAR     54  43  66 S8        30.02S
THIEF RVR FALL PTCLDY    55  43  62 SE8       29.99S
CROOKSTON      PTCLDY    57  50  77 S8        29.97F
FOSSTON        MOCLDY    59  46  63 SE7       29.99F
DETROIT LAKES  CLOUDY    59  54  82 SE15      30.00S
MOORHEAD       CLOUDY    61  54  77 SE15      29.97S
PARK RAPIDS    CLOUDY    60  48  64 SE12      30.02F
MAHNOMEN       CLOUDY    60  51  73 SE8       29.99S
$$
MNZ006-009>011-018-025>026-061000-
   North Central Minnesota

CITY           SKY/WX    TMP DP  RH WIND       PRES   REMARKS
BAUDETTE       CLEAR     51  32  48 SE8       30.04S
FLAG ISLAND    CLEAR     55  39  54 SE10      30.02R
INTL FALLS     CLEAR     44  28  53 SE6       30.08S
WASKISH        CLEAR     50  37  62 CALM      30.05S
BIG FORK       CLEAR     50  30  46 SE5       30.08S
LONGVILLE      CLOUDY    57  45  62 SE9       30.05S
GRAND RAPIDS   MOCLDY    50  30  46 SE8       30.08F
CRANE LAKE     CLEAR     39  28  65 CALM      30.13S
COOK           CLEAR     45  28  53 E5        30.12S
WALKER         CLOUDY    58  45  62 SE6       30.03F
$$
MNZ012-019>021-037-061000-
   Northeast Minnesota

CITY           SKY/WX    TMP DP  RH WIND       PRES   REMARKS
DULUTH         CLOUDY    50  30  46 E7        30.12F
ELY            CLEAR     36  27  69 CALM      30.14S
HIBBING        PTCLDY    44  28  53 SE3       30.10F
EVELETH        PTCLDY    39  30  70 NE5       30.13S
DULUTH HARBOR  MOCLDY    43  37  81 NE8       30.15F
TWO HARBORS    CLOUDY    52  34  50 NE3       30.13S
SILVER BAY     CLOUDY    37  30  75 CALM      30.14S
GRAND MARAIS     N/A     38  32  79 CALM      30.18S
G MARAIS ARPRT CLEAR     36  23  60 CALM      30.19S
$$
MNZ029>031-032-039>041-046>048-054>057-064-061000-
   West Central Minnesota

CITY           SKY/WX    TMP DP  RH WIND       PRES   REMARKS
FERGUS FALLS   CLOUDY    57  54  88 SE16      29.99F
WHEATON        CLOUDY    54  52  94 SE17      29.98F
MORRIS         CLOUDY    55  54  94 SE15      29.99F FOG
ALEXANDRIA     CLOUDY    55  53  93 SE12      30.03F
ELBOW LAKE     CLOUDY    56  54  91 SE14      29.99F
WADENA         CLOUDY    55  52  88 SE12      30.03S
GLENWOOD       CLOUDY    55  54  94 SE13      30.03F
APPLETON       CLOUDY    57  54  88 SE12G17   29.98F FOG
BENSON         CLOUDY    55  52  88 SE10      30.00F FOG
ORTONVILLE     CLOUDY    55  54  94 SE13      29.97F FOG
MADISON        CLOUDY    57  54  88 SE14      29.98S FOG
WILLMAR        CLOUDY    55  55 100 SE14      30.03F FOG
$$
MNZ033>034-036-042>043-049>051-058-059-061000-
   Central Minnesota

CITY           SKY/WX    TMP DP  RH WIND       PRES   REMARKS
ST CLOUD       CLOUDY    56  53  90 E7        30.06F
SAUK CENTRE    CLOUDY    55  53  94 SE12G17   30.04F
PAYNESVILLE    CLOUDY    52  52  99 E12       30.04F FOG
AITKIN         CLOUDY    59  46  63 SE10      30.06S
PINE RIVER     CLOUDY    57  50  77 SE8       30.08S
BRAINERD       CLOUDY    57  51  80 S9        30.07S
STAPLES        CLOUDY    55  52  88 SE9       30.04F
LONG PRAIRIE   CLOUDY    54  52  94 E9        30.05F
LITTLE FALLS   CLOUDY    55  50  82 SE7       30.06F
LITCHFIELD     CLOUDY    55  55 100 E10       30.05F FOG
BUFFALO        CLOUDY    55  52  89 E7        30.07F
MAPLE LAKE     CLOUDY    56  55  94 SE6       30.07F FOG
$$
MNZ037-044-045-052-053-061000-
   East Central Minnesota

CITY           SKY/WX    TMP DP  RH WIND       PRES   REMARKS
PRINCETON      CLOUDY    55  54  94 SE8       30.09S
MORA           CLOUDY    54  46  76 SE9       30.11F
CAMBRIDGE      CLOUDY    55  48  76 SE7       30.07F
RUSH CITY      CLOUDY    54  50  86 SE5       30.10F
MOOSE LAKE     CLOUDY    52  46  82 CALM      30.08F
HINCKLEY       CLOUDY    55  52  88 SE5       30.11S
CLOQUET        CLOUDY    46  30  53 E3        30.12S
MCGREGOR       CLOUDY    55  43  62 SE8       30.09S
$$
MNZ071>073-080-081-089-090-097-098-061000-
   Southwest Minnesota

CITY           SKY/WX    TMP DP  RH WIND       PRES   REMARKS
MONTEVIDEO     CLOUDY    55  55 100 S14       30.00F FOG
GRANITE FALLS  CLOUDY    55  54  96 E17       30.01S FOG
CANBY          CLOUDY    57  55  93 SE14      29.99S FOG
MARSHALL       CLOUDY    55  52  88 SE14      29.98F
REDWOOD FALLS  FOG       55  55 100 SE13      30.00F VSB 3/4
OLIVIA         CLOUDY    52  50  93 SE12      30.01F FOG
WINDOM         CLOUDY    57  55  94 SE16      30.00F VSB 1/2
WORTHINGTON    CLOUDY    59  55  88 SE14      29.98F VSB 3/4
JACKSON        FOG       57  55  94 SE13      30.00F VSB 1/2
TRACY          CLOUDY    57  57  97 SE9       29.99F FOG
SLAYTON        LGT RAIN  57  57 100 SE14      29.99S VSB 1/2
$$
MNZ065>067-074>077-082>085-091>093-061000-
   South Central Minnesota

CITY           SKY/WX    TMP DP  RH WIND       PRES   REMARKS
MANKATO        CLOUDY    55  54  94 SE13      30.05S
NEW ULM        FOG       55  55 100 SE10      30.02F VSB 3/4
ST JAMES       CLOUDY    57  55  94 SE13      30.03F FOG
FAIRMONT       CLOUDY    57  52  82 SE16      30.01F
GLENCOE        CLOUDY    56  55  99 E9        30.05F FOG
FARIBAULT      CLOUDY    55  54  94 SE9       30.07F FOG
OWATONNA       CLOUDY    55  54  94 SE12G18   30.06F FOG
WASECA         FOG       54  52  94 SE14      30.06F VSB 1
ALBERT LEA     FOG       55  55 100 SE12      30.06S VSB 1/4
$$
MNZ078>079-086>088-094>096-061000-
   Southeast Minnesota

CITY           SKY/WX    TMP DP  RH WIND       PRES   REMARKS
ROCHESTER      FOG       54  53  97 SE16      30.10F VSB 1/4
RED WING       CLOUDY    55  54  94 SE9       30.09F FOG
STANTON        CLOUDY    56  53  92 SE5       30.07S FOG
DODGE CENTER   FOG       55  54  94 SE13      30.08F VSB<1/4
WINONA         CLOUDY    54  52  94 SE6       30.13S
AUSTIN         FOG       55  54  94 SE8       30.08S VSB 1/2
PRESTON        FOG       53  52  97 SE8       30.11F VSB 1/4
$$
ABBREVIATIONS USED IN REMARKS
   TC - TEMPERATURES IN CELSIUS
  WCI - WIND CHILL INDEX
   HX - HEAT INDEX
  VSB - VISIBILITY
$$


USA.gov is the U.S. government's official web portal to all federal, state and local government web resources and services.